Year,Month,Day,Hour,Minute,Value (Times are PST for temperature in C)
2018,06,17,00,00,16.90
2018,06,17,00,01,16.90
2018,06,17,00,02,16.80
2018,06,17,00,03,16.80
2018,06,17,00,04,16.80
2018,06,17,00,05,16.70
2018,06,17,00,06,16.70
2018,06,17,00,07,16.60
2018,06,17,00,08,16.60
2018,06,17,00,09,16.50
2018,06,17,00,10,16.50
2018,06,17,00,11,16.50
2018,06,17,00,12,16.50
2018,06,17,00,13,16.40
2018,06,17,00,14,16.40
2018,06,17,00,15,16.40
2018,06,17,00,16,16.40
2018,06,17,00,17,16.40
2018,06,17,00,18,16.40
2018,06,17,00,19,16.40
2018,06,17,00,20,16.30
2018,06,17,00,21,16.30
2018,06,17,00,22,16.30
2018,06,17,00,23,16.30
2018,06,17,00,24,16.30
2018,06,17,00,25,16.20
2018,06,17,00,26,16.20
2018,06,17,00,27,16.20
2018,06,17,00,28,16.20
2018,06,17,00,29,16.20
2018,06,17,00,30,16.20
2018,06,17,00,31,16.10
2018,06,17,00,32,16.10
2018,06,17,00,33,16.10
2018,06,17,00,34,16.10
2018,06,17,00,35,16.10
2018,06,17,00,36,16.00
2018,06,17,00,37,16.00
2018,06,17,00,38,16.00
2018,06,17,00,39,15.90
2018,06,17,00,40,15.90
2018,06,17,00,41,15.90
2018,06,17,00,42,15.90
2018,06,17,00,43,15.90
2018,06,17,00,44,15.90
2018,06,17,00,45,15.90
2018,06,17,00,46,15.90
2018,06,17,00,47,15.90
2018,06,17,00,48,15.80
2018,06,17,00,49,15.80
2018,06,17,00,50,15.80
2018,06,17,00,51,15.80
2018,06,17,00,52,15.80
2018,06,17,00,53,15.80
2018,06,17,00,54,15.70
2018,06,17,00,55,15.70
2018,06,17,00,56,15.70
2018,06,17,00,57,15.70
2018,06,17,00,58,15.70
2018,06,17,00,59,15.60
2018,06,17,01,00,15.60
2018,06,17,01,01,15.50
2018,06,17,01,02,15.50
2018,06,17,01,03,15.50
2018,06,17,01,04,15.50
2018,06,17,01,05,15.40
2018,06,17,01,06,15.40
2018,06,17,01,07,15.40
2018,06,17,01,08,15.40
2018,06,17,01,09,15.40
2018,06,17,01,10,15.40
2018,06,17,01,11,15.40
2018,06,17,01,12,15.40
2018,06,17,01,13,15.40
2018,06,17,01,14,15.40
2018,06,17,01,15,15.30
2018,06,17,01,16,15.30
2018,06,17,01,17,15.30
2018,06,17,01,18,15.30
2018,06,17,01,19,15.30
2018,06,17,01,20,15.30
2018,06,17,01,21,15.30
2018,06,17,01,22,15.30
2018,06,17,01,23,15.30
2018,06,17,01,24,15.20
2018,06,17,01,25,15.20
2018,06,17,01,26,15.20
2018,06,17,01,27,15.20
2018,06,17,01,28,15.20
2018,06,17,01,29,15.20
2018,06,17,01,30,15.20
2018,06,17,01,31,15.30
2018,06,17,01,32,15.20
2018,06,17,01,33,15.20
2018,06,17,01,34,15.20
2018,06,17,01,35,15.20
2018,06,17,01,36,15.20
2018,06,17,01,37,15.20
2018,06,17,01,38,15.20
2018,06,17,01,39,15.20
2018,06,17,01,40,15.30
2018,06,17,01,41,15.30
2018,06,17,01,42,15.30
2018,06,17,01,43,15.30
2018,06,17,01,44,15.30
2018,06,17,01,45,15.30
2018,06,17,01,46,15.30
2018,06,17,01,47,15.30
2018,06,17,01,48,15.30
2018,06,17,01,49,15.30
2018,06,17,01,50,15.30
2018,06,17,01,51,15.30
2018,06,17,01,52,15.30
2018,06,17,01,53,15.30
2018,06,17,01,54,15.30
2018,06,17,01,55,15.30
2018,06,17,01,56,15.20
2018,06,17,01,57,15.20
2018,06,17,01,58,15.20
2018,06,17,01,59,15.20
2018,06,17,02,00,15.20
2018,06,17,02,01,15.10
2018,06,17,02,02,15.10
2018,06,17,02,03,15.10
2018,06,17,02,04,15.10
2018,06,17,02,05,15.10
2018,06,17,02,06,15.10
2018,06,17,02,07,15.10
2018,06,17,02,08,15.10
2018,06,17,02,09,15.10
2018,06,17,02,10,15.10
2018,06,17,02,11,15.10
2018,06,17,02,12,15.00
2018,06,17,02,13,15.00
2018,06,17,02,14,15.00
2018,06,17,02,15,15.00
2018,06,17,02,16,14.90
2018,06,17,02,17,14.90
2018,06,17,02,18,14.90
2018,06,17,02,19,14.90
2018,06,17,02,20,14.90
2018,06,17,02,21,14.90
2018,06,17,02,22,14.90
2018,06,17,02,23,14.80
2018,06,17,02,24,14.80
2018,06,17,02,25,14.80
2018,06,17,02,26,14.80
2018,06,17,02,27,14.80
2018,06,17,02,28,14.80
2018,06,17,02,29,14.80
2018,06,17,02,30,14.80
2018,06,17,02,31,14.70
2018,06,17,02,32,14.70
2018,06,17,02,33,14.70
2018,06,17,02,34,14.70
2018,06,17,02,35,14.70
2018,06,17,02,36,14.70
2018,06,17,02,37,14.80
2018,06,17,02,38,14.80
2018,06,17,02,39,14.90
2018,06,17,02,40,14.90
2018,06,17,02,41,14.90
2018,06,17,02,42,15.00
2018,06,17,02,43,15.10
2018,06,17,02,44,15.10
2018,06,17,02,45,15.10
2018,06,17,02,46,15.10
2018,06,17,02,47,15.10
2018,06,17,02,48,15.20
2018,06,17,02,49,15.20
2018,06,17,02,50,15.20
2018,06,17,02,51,15.20
2018,06,17,02,52,15.20
2018,06,17,02,53,15.10
2018,06,17,02,54,15.10
2018,06,17,02,55,15.10
2018,06,17,02,56,15.10
2018,06,17,02,57,15.00
2018,06,17,02,58,15.00
2018,06,17,02,59,14.90
2018,06,17,03,00,14.90
2018,06,17,03,01,14.90
2018,06,17,03,02,14.90
2018,06,17,03,03,14.90
2018,06,17,03,04,14.80
2018,06,17,03,05,14.80
2018,06,17,03,06,14.80
2018,06,17,03,07,14.70
2018,06,17,03,08,14.70
2018,06,17,03,09,14.70
2018,06,17,03,10,14.70
2018,06,17,03,11,14.60
2018,06,17,03,12,14.60
2018,06,17,03,13,14.60
2018,06,17,03,14,14.60
2018,06,17,03,15,14.60
2018,06,17,03,16,14.50
2018,06,17,03,17,14.50
2018,06,17,03,18,14.50
2018,06,17,03,19,14.40
2018,06,17,03,20,14.40
2018,06,17,03,21,14.40
2018,06,17,03,22,14.40
2018,06,17,03,23,14.30
2018,06,17,03,24,14.30
2018,06,17,03,25,14.30
2018,06,17,03,26,14.30
2018,06,17,03,27,14.30
2018,06,17,03,28,14.20
2018,06,17,03,29,14.20
2018,06,17,03,30,14.20
2018,06,17,03,31,14.10
2018,06,17,03,32,14.00
2018,06,17,03,33,13.90
2018,06,17,03,36,13.80
2018,06,17,03,37,13.80
2018,06,17,03,38,13.80
2018,06,17,03,39,13.70
2018,06,17,03,40,13.70
2018,06,17,03,41,13.70
2018,06,17,03,42,13.70
2018,06,17,03,43,13.70
2018,06,17,03,44,13.70
2018,06,17,03,45,13.70
2018,06,17,03,46,13.70
2018,06,17,03,47,13.70
2018,06,17,03,48,13.60
2018,06,17,03,49,13.60
2018,06,17,03,50,13.60
2018,06,17,03,51,13.60
2018,06,17,03,52,13.60
2018,06,17,03,53,13.60
2018,06,17,03,54,13.50
2018,06,17,03,55,13.50
2018,06,17,03,56,13.50
2018,06,17,03,57,13.50
2018,06,17,03,58,13.40
2018,06,17,03,59,13.40
2018,06,17,04,00,13.40
2018,06,17,04,01,13.40
2018,06,17,04,02,13.40
2018,06,17,04,03,13.40
2018,06,17,04,04,13.40
2018,06,17,04,05,13.30
2018,06,17,04,06,13.30
2018,06,17,04,07,13.30
2018,06,17,04,08,13.30
2018,06,17,04,09,13.30
2018,06,17,04,10,13.30
2018,06,17,04,11,13.30
2018,06,17,04,12,13.30
2018,06,17,04,13,13.30
2018,06,17,04,14,13.20
2018,06,17,04,15,13.20
2018,06,17,04,16,13.20
2018,06,17,04,17,13.20
2018,06,17,04,18,13.20
2018,06,17,04,19,13.20
2018,06,17,04,20,13.10
2018,06,17,04,21,13.10
2018,06,17,04,22,13.10
2018,06,17,04,23,13.10
2018,06,17,04,24,13.10
2018,06,17,04,25,13.10
2018,06,17,04,26,13.00
2018,06,17,04,27,13.00
2018,06,17,04,28,13.00
2018,06,17,04,29,12.90
2018,06,17,04,30,12.90
2018,06,17,04,31,12.90
2018,06,17,04,32,12.90
2018,06,17,04,33,12.80
2018,06,17,04,34,12.80
2018,06,17,04,35,12.80
2018,06,17,04,36,12.80
2018,06,17,04,37,12.80
2018,06,17,04,38,12.80
2018,06,17,04,39,12.70
2018,06,17,04,40,12.70
2018,06,17,04,41,12.70
2018,06,17,04,42,12.70
2018,06,17,04,43,12.70
2018,06,17,04,44,12.60
2018,06,17,04,45,12.60
2018,06,17,04,46,12.60
2018,06,17,04,47,12.60
2018,06,17,04,48,12.60
2018,06,17,04,49,12.60
2018,06,17,04,50,12.60
2018,06,17,04,51,12.50
2018,06,17,04,52,12.50
2018,06,17,04,53,12.50
2018,06,17,04,54,12.50
2018,06,17,04,55,12.50
2018,06,17,04,56,12.50
2018,06,17,04,57,12.40
2018,06,17,04,58,12.40
2018,06,17,04,59,12.40
2018,06,17,05,00,12.40
2018,06,17,05,01,12.40
2018,06,17,05,02,12.40
2018,06,17,05,03,12.30
2018,06,17,05,04,12.30
2018,06,17,05,05,12.30
2018,06,17,05,06,12.30
2018,06,17,05,07,12.30
2018,06,17,05,08,12.30
2018,06,17,05,09,12.30
2018,06,17,05,10,12.30
2018,06,17,05,11,12.30
2018,06,17,05,12,12.30
2018,06,17,05,13,12.30
2018,06,17,05,14,12.30
2018,06,17,05,15,12.30
2018,06,17,05,16,12.30
2018,06,17,05,17,12.20
2018,06,17,05,18,12.20
2018,06,17,05,19,12.20
2018,06,17,05,20,12.20
2018,06,17,05,21,12.20
2018,06,17,05,22,12.20
2018,06,17,05,23,12.20
2018,06,17,05,24,12.20
2018,06,17,05,25,12.20
2018,06,17,05,26,12.20
2018,06,17,05,27,12.20
2018,06,17,05,28,12.20
2018,06,17,05,29,12.20
2018,06,17,05,30,12.20
2018,06,17,05,31,12.20
2018,06,17,05,32,12.20
2018,06,17,05,33,12.20
2018,06,17,05,34,12.20
2018,06,17,05,35,12.20
2018,06,17,05,36,12.20
2018,06,17,05,37,12.20
2018,06,17,05,38,12.20
2018,06,17,05,39,12.20
2018,06,17,05,40,12.30
2018,06,17,05,41,12.30
2018,06,17,05,42,12.30
2018,06,17,05,43,12.30
2018,06,17,05,44,12.30
2018,06,17,05,45,12.40
2018,06,17,05,46,12.40
2018,06,17,05,47,12.40
2018,06,17,05,48,12.40
2018,06,17,05,49,12.50
2018,06,17,05,50,12.50
2018,06,17,05,51,12.50
2018,06,17,05,52,12.60
2018,06,17,05,53,12.60
2018,06,17,05,54,12.60
2018,06,17,05,55,12.60
2018,06,17,05,56,12.60
2018,06,17,05,57,12.70
2018,06,17,05,58,12.70
2018,06,17,05,59,12.80
2018,06,17,06,00,12.80
2018,06,17,06,01,12.80
2018,06,17,06,02,12.90
2018,06,17,06,03,12.90
2018,06,17,06,04,13.00
2018,06,17,06,05,13.00
2018,06,17,06,06,13.00
2018,06,17,06,07,13.10
2018,06,17,06,08,13.10
2018,06,17,06,09,13.10
2018,06,17,06,10,13.20
2018,06,17,06,11,13.20
2018,06,17,06,12,13.20
2018,06,17,06,13,13.30
2018,06,17,06,14,13.40
2018,06,17,06,15,13.40
2018,06,17,06,16,13.50
2018,06,17,06,17,13.60
2018,06,17,06,18,13.60
2018,06,17,06,19,13.70
2018,06,17,06,20,13.70
2018,06,17,06,21,13.70
2018,06,17,06,22,13.70
2018,06,17,06,23,13.80
2018,06,17,06,24,13.80
2018,06,17,06,25,13.90
2018,06,17,06,26,13.90
2018,06,17,06,27,13.90
2018,06,17,06,28,14.00
2018,06,17,06,29,14.00
2018,06,17,06,30,14.10
2018,06,17,06,31,14.20
2018,06,17,06,32,14.20
2018,06,17,06,33,14.30
2018,06,17,06,34,14.30
2018,06,17,06,35,14.30
2018,06,17,06,36,14.30
2018,06,17,06,37,14.40
2018,06,17,06,38,14.40
2018,06,17,06,39,14.40
2018,06,17,06,40,14.50
2018,06,17,06,41,14.50
2018,06,17,06,42,14.50
2018,06,17,06,43,14.60
2018,06,17,06,44,14.60
2018,06,17,06,45,14.60
2018,06,17,06,46,14.60
2018,06,17,06,47,14.70
2018,06,17,06,48,14.70
2018,06,17,06,49,14.70
2018,06,17,06,50,14.70
2018,06,17,06,51,14.70
2018,06,17,06,52,14.70
2018,06,17,06,53,14.80
2018,06,17,06,54,14.80
2018,06,17,06,55,14.80
2018,06,17,06,56,14.80
2018,06,17,06,57,14.90
2018,06,17,06,58,14.90
2018,06,17,06,59,14.90
2018,06,17,07,00,15.00
2018,06,17,07,01,15.00
2018,06,17,07,02,15.10
2018,06,17,07,03,15.10
2018,06,17,07,04,15.20
2018,06,17,07,05,15.20
2018,06,17,07,06,15.30
2018,06,17,07,07,15.30
2018,06,17,07,08,15.30
2018,06,17,07,09,15.40
2018,06,17,07,10,15.40
2018,06,17,07,11,15.50
2018,06,17,07,12,15.60
2018,06,17,07,13,15.60
2018,06,17,07,14,15.70
2018,06,17,07,15,15.80
2018,06,17,07,16,15.80
2018,06,17,07,17,15.90
2018,06,17,07,18,15.90
2018,06,17,07,19,16.00
2018,06,17,07,20,16.00
2018,06,17,07,21,16.10
2018,06,17,07,22,16.20
2018,06,17,07,23,16.30
2018,06,17,07,24,16.30
2018,06,17,07,25,16.30
2018,06,17,07,26,16.40
2018,06,17,07,27,16.40
2018,06,17,07,28,16.50
2018,06,17,07,29,16.60
2018,06,17,07,30,16.60
2018,06,17,07,31,16.70
2018,06,17,07,32,16.70
2018,06,17,07,33,16.80
2018,06,17,07,34,16.90
2018,06,17,07,35,16.90
2018,06,17,07,36,17.00
2018,06,17,07,37,17.10
2018,06,17,07,38,17.20
2018,06,17,07,39,17.20
2018,06,17,07,40,17.30
2018,06,17,07,41,17.30
2018,06,17,07,42,17.40
2018,06,17,07,43,17.40
2018,06,17,07,44,17.50
2018,06,17,07,45,17.50
2018,06,17,07,46,17.60
2018,06,17,07,47,17.60
2018,06,17,07,48,17.70
2018,06,17,07,49,17.70
2018,06,17,07,50,17.80
2018,06,17,07,51,17.80
2018,06,17,07,52,17.80
2018,06,17,07,53,17.90
2018,06,17,07,54,17.90
2018,06,17,07,55,18.00
2018,06,17,07,56,18.00
2018,06,17,07,57,18.00
2018,06,17,07,58,18.10
2018,06,17,07,59,18.10
2018,06,17,08,00,18.10
2018,06,17,08,01,18.20
2018,06,17,08,02,18.20
2018,06,17,08,03,18.20
2018,06,17,08,04,18.30
2018,06,17,08,05,18.30
2018,06,17,08,06,18.40
2018,06,17,08,07,18.50
2018,06,17,08,08,18.50
2018,06,17,08,09,18.60
2018,06,17,08,10,18.70
2018,06,17,08,11,18.70
2018,06,17,08,12,18.80
2018,06,17,08,13,18.90
2018,06,17,08,14,19.00
2018,06,17,08,15,19.10
2018,06,17,08,16,19.30
2018,06,17,08,17,19.40
2018,06,17,08,18,19.40
2018,06,17,08,19,19.50
2018,06,17,08,20,19.60
2018,06,17,08,21,19.70
2018,06,17,08,22,19.80
2018,06,17,08,23,19.80
2018,06,17,08,24,19.90
2018,06,17,08,25,19.90
2018,06,17,08,26,20.00
2018,06,17,08,27,20.00
2018,06,17,08,28,20.10
2018,06,17,08,29,20.10
2018,06,17,08,30,20.20
2018,06,17,08,31,20.20
2018,06,17,08,32,20.30
2018,06,17,08,33,20.30
2018,06,17,08,34,20.30
2018,06,17,08,35,20.30
2018,06,17,08,36,20.40
2018,06,17,08,37,20.40
2018,06,17,08,38,20.50
2018,06,17,08,39,20.60
2018,06,17,08,40,20.60
2018,06,17,08,41,20.70
2018,06,17,08,42,20.70
2018,06,17,08,43,20.70
2018,06,17,08,44,20.70
2018,06,17,08,45,20.70
2018,06,17,08,46,20.70
2018,06,17,08,47,20.70
2018,06,17,08,48,20.70
2018,06,17,08,49,20.70
2018,06,17,08,50,20.80
2018,06,17,08,51,20.70
2018,06,17,08,52,20.70
2018,06,17,08,53,20.70
2018,06,17,08,54,20.70
2018,06,17,08,55,20.70
2018,06,17,08,56,20.70
2018,06,17,08,57,20.80
2018,06,17,08,58,20.80
2018,06,17,08,59,20.80
2018,06,17,09,00,20.80
2018,06,17,09,01,20.90
2018,06,17,09,02,21.00
2018,06,17,09,03,20.90
2018,06,17,09,04,20.90
2018,06,17,09,05,21.00
2018,06,17,09,06,21.00
2018,06,17,09,07,21.00
2018,06,17,09,08,21.00
2018,06,17,09,09,21.00
2018,06,17,09,10,21.00
2018,06,17,09,11,20.90
2018,06,17,09,12,20.90
2018,06,17,09,13,20.90
2018,06,17,09,14,20.80
2018,06,17,09,15,20.70
2018,06,17,09,16,20.70
2018,06,17,09,17,20.70
2018,06,17,09,18,20.70
2018,06,17,09,19,20.70
2018,06,17,09,20,20.70
2018,06,17,09,21,20.70
2018,06,17,09,22,20.70
2018,06,17,09,23,20.70
2018,06,17,09,24,20.70
2018,06,17,09,25,20.80
2018,06,17,09,26,20.80
2018,06,17,09,27,20.80
2018,06,17,09,28,20.90
2018,06,17,09,29,20.90
2018,06,17,09,30,20.90
2018,06,17,09,31,20.90
2018,06,17,09,32,20.90
2018,06,17,09,33,20.90
2018,06,17,09,34,20.80
2018,06,17,09,35,20.80
2018,06,17,09,36,20.80
2018,06,17,09,37,20.80
2018,06,17,09,38,20.80
2018,06,17,09,39,20.80
2018,06,17,09,40,20.80
2018,06,17,09,41,20.90
2018,06,17,09,42,20.90
2018,06,17,09,43,21.00
2018,06,17,09,44,21.00
2018,06,17,09,45,21.00
2018,06,17,09,46,21.00
2018,06,17,09,47,21.00
2018,06,17,09,48,21.00
2018,06,17,09,49,21.00
2018,06,17,09,50,21.00
2018,06,17,09,51,21.00
2018,06,17,09,52,21.10
2018,06,17,09,53,21.10
2018,06,17,09,54,21.20
2018,06,17,09,55,21.30
2018,06,17,09,56,21.40
2018,06,17,09,57,21.40
2018,06,17,09,58,21.40
2018,06,17,09,59,21.40
2018,06,17,10,00,21.40
2018,06,17,10,01,21.40
2018,06,17,10,02,21.30
2018,06,17,10,03,21.40
2018,06,17,10,04,21.40
2018,06,17,10,05,21.40
2018,06,17,10,06,21.40
2018,06,17,10,07,21.50
2018,06,17,10,08,21.60
2018,06,17,10,09,21.70
2018,06,17,10,10,21.70
2018,06,17,10,11,21.80
2018,06,17,10,12,21.80
2018,06,17,10,13,21.90
2018,06,17,10,14,21.90
2018,06,17,10,15,21.80
2018,06,17,10,16,21.70
2018,06,17,10,17,21.60
2018,06,17,10,18,21.50
2018,06,17,10,19,21.40
2018,06,17,10,20,21.30
2018,06,17,10,21,21.40
2018,06,17,10,22,21.40
2018,06,17,10,23,21.40
2018,06,17,10,24,21.40
2018,06,17,10,25,21.40
2018,06,17,10,26,21.30
2018,06,17,10,27,21.30
2018,06,17,10,28,21.30
2018,06,17,10,29,21.40
2018,06,17,10,30,21.40
2018,06,17,10,31,21.50
2018,06,17,10,32,21.50
2018,06,17,10,33,21.60
2018,06,17,10,34,21.70
2018,06,17,10,35,21.80
2018,06,17,10,36,21.80
2018,06,17,10,37,21.90
2018,06,17,10,38,21.90
2018,06,17,10,39,21.90
2018,06,17,10,40,21.80
2018,06,17,10,41,21.80
2018,06,17,10,42,21.80
2018,06,17,10,43,21.80
2018,06,17,10,44,21.80
2018,06,17,10,45,21.90
2018,06,17,10,46,21.90
2018,06,17,10,47,21.90
2018,06,17,10,48,21.90
2018,06,17,10,49,22.00
2018,06,17,10,50,22.10
2018,06,17,10,51,22.30
2018,06,17,10,52,22.30
2018,06,17,10,53,22.40
2018,06,17,10,54,22.50
2018,06,17,10,55,22.60
2018,06,17,10,56,22.70
2018,06,17,10,57,22.70
2018,06,17,10,58,22.70
2018,06,17,10,59,22.60
2018,06,17,11,00,22.40
2018,06,17,11,01,22.30
2018,06,17,11,02,22.30
2018,06,17,11,03,22.30
2018,06,17,11,04,22.40
2018,06,17,11,05,22.30
2018,06,17,11,06,22.30
2018,06,17,11,07,22.30
2018,06,17,11,08,22.30
2018,06,17,11,09,22.30
2018,06,17,11,10,22.40
2018,06,17,11,11,22.50
2018,06,17,11,12,22.50
2018,06,17,11,13,22.50
2018,06,17,11,14,22.40
2018,06,17,11,15,22.50
2018,06,17,11,16,22.60
2018,06,17,11,17,22.60
2018,06,17,11,18,22.60
2018,06,17,11,19,22.60
2018,06,17,11,20,22.60
2018,06,17,11,21,22.70
2018,06,17,11,22,22.80
2018,06,17,11,23,22.90
2018,06,17,11,24,23.00
2018,06,17,11,25,23.00
2018,06,17,11,26,23.00
2018,06,17,11,27,22.90
2018,06,17,11,28,23.00
2018,06,17,11,29,23.10
2018,06,17,11,30,23.10
2018,06,17,11,31,23.10
2018,06,17,11,32,23.00
2018,06,17,11,33,22.90
2018,06,17,11,34,22.90
2018,06,17,11,35,22.90
2018,06,17,11,36,22.90
2018,06,17,11,37,22.90
2018,06,17,11,38,22.90
2018,06,17,11,39,22.90
2018,06,17,11,40,23.00
2018,06,17,11,41,23.00
2018,06,17,11,42,23.00
2018,06,17,11,43,23.00
2018,06,17,11,44,23.10
2018,06,17,11,45,23.10
2018,06,17,11,46,23.20
2018,06,17,11,47,23.20
2018,06,17,11,48,23.20
2018,06,17,11,49,23.20
2018,06,17,11,50,23.20
2018,06,17,11,51,23.20
2018,06,17,11,52,23.30
2018,06,17,11,53,23.30
2018,06,17,11,54,23.40
2018,06,17,11,55,23.50
2018,06,17,11,56,23.60
2018,06,17,11,57,23.70
2018,06,17,11,58,23.70
2018,06,17,11,59,23.60
2018,06,17,12,00,23.60
2018,06,17,12,01,23.70
2018,06,17,12,02,23.80
2018,06,17,12,03,23.90
2018,06,17,12,04,23.90
2018,06,17,12,05,23.90
2018,06,17,12,06,23.90
2018,06,17,12,07,24.00
2018,06,17,12,08,24.00
2018,06,17,12,09,23.90
2018,06,17,12,10,23.90
2018,06,17,12,11,23.80
2018,06,17,12,12,23.80
2018,06,17,12,13,23.80
2018,06,17,12,14,23.80
2018,06,17,12,15,23.80
2018,06,17,12,16,23.80
2018,06,17,12,17,23.80
2018,06,17,12,18,23.80
2018,06,17,12,19,23.90
2018,06,17,12,20,24.00
2018,06,17,12,21,24.10
2018,06,17,12,22,24.20
2018,06,17,12,23,24.30
2018,06,17,12,24,24.40
2018,06,17,12,25,24.40
2018,06,17,12,26,24.50
2018,06,17,12,27,24.70
2018,06,17,12,28,24.80
2018,06,17,12,29,25.00
2018,06,17,12,30,25.00
2018,06,17,12,31,25.10
2018,06,17,12,32,25.10
2018,06,17,12,33,25.00
2018,06,17,12,34,24.90
2018,06,17,12,35,24.90
2018,06,17,12,36,25.00
2018,06,17,12,37,25.10
2018,06,17,12,38,25.20
2018,06,17,12,39,25.20
2018,06,17,12,40,25.10
2018,06,17,12,41,25.10
2018,06,17,12,42,25.10
2018,06,17,12,43,25.10
2018,06,17,12,44,25.20
2018,06,17,12,45,25.30
2018,06,17,12,46,25.30
2018,06,17,12,47,25.40
2018,06,17,12,48,25.40
2018,06,17,12,49,25.40
2018,06,17,12,50,25.50
2018,06,17,12,51,25.50
2018,06,17,12,52,25.40
2018,06,17,12,53,25.40
2018,06,17,12,54,25.30
2018,06,17,12,55,25.30
2018,06,17,12,56,25.40
2018,06,17,12,57,25.40
2018,06,17,12,58,25.50
2018,06,17,12,59,25.60
2018,06,17,13,00,25.70
2018,06,17,13,01,25.80
2018,06,17,13,02,25.80
2018,06,17,13,03,25.90
2018,06,17,13,04,25.90
2018,06,17,13,05,25.90
2018,06,17,13,06,25.90
2018,06,17,13,07,25.90
2018,06,17,13,08,25.90
2018,06,17,13,09,25.80
2018,06,17,13,10,25.90
2018,06,17,13,11,26.00
2018,06,17,13,12,26.10
2018,06,17,13,13,26.20
2018,06,17,13,14,26.30
2018,06,17,13,15,26.30
2018,06,17,13,16,26.20
2018,06,17,13,17,26.10
2018,06,17,13,18,26.00
2018,06,17,13,19,25.90
2018,06,17,13,20,25.70
2018,06,17,13,21,25.70
2018,06,17,13,22,25.80
2018,06,17,13,23,25.90
2018,06,17,13,24,26.00
2018,06,17,13,25,26.10
2018,06,17,13,26,26.20
2018,06,17,13,27,26.30
2018,06,17,13,28,26.40
2018,06,17,13,29,26.40
2018,06,17,13,30,26.30
2018,06,17,13,31,26.20
2018,06,17,13,32,26.10
2018,06,17,13,33,26.00
2018,06,17,13,34,26.00
2018,06,17,13,35,25.90
2018,06,17,13,36,25.80
2018,06,17,13,37,25.70
2018,06,17,13,38,25.70
2018,06,17,13,39,25.60
2018,06,17,13,40,25.60
2018,06,17,13,41,25.60
2018,06,17,13,42,25.60
2018,06,17,13,43,25.80
2018,06,17,13,44,25.80
2018,06,17,13,45,25.90
2018,06,17,13,46,25.90
2018,06,17,13,47,25.90
2018,06,17,13,48,25.90
2018,06,17,13,49,25.90
2018,06,17,13,50,26.00
2018,06,17,13,51,26.10
2018,06,17,13,52,26.30
2018,06,17,13,53,26.40
2018,06,17,13,54,26.40
2018,06,17,13,55,26.40
2018,06,17,13,56,26.40
2018,06,17,13,57,26.40
2018,06,17,13,58,26.40
2018,06,17,13,59,26.40
2018,06,17,14,00,26.30
2018,06,17,14,01,26.30
2018,06,17,14,02,26.30
2018,06,17,14,03,26.30
2018,06,17,14,04,26.30
2018,06,17,14,05,26.30
2018,06,17,14,06,26.30
2018,06,17,14,07,26.20
2018,06,17,14,08,26.20
2018,06,17,14,09,26.20
2018,06,17,14,10,26.20
2018,06,17,14,11,26.20
2018,06,17,14,12,26.20
2018,06,17,14,13,26.20
2018,06,17,14,14,26.20
2018,06,17,14,15,26.20
2018,06,17,14,16,26.20
2018,06,17,14,17,26.20
2018,06,17,14,18,26.30
2018,06,17,14,19,26.30
2018,06,17,14,20,26.30
2018,06,17,14,21,26.30
2018,06,17,14,22,26.30
2018,06,17,14,23,26.30
2018,06,17,14,24,26.20
2018,06,17,14,25,26.20
2018,06,17,14,26,26.30
2018,06,17,14,27,26.30
2018,06,17,14,28,26.30
2018,06,17,14,29,26.30
2018,06,17,14,30,26.30
2018,06,17,14,31,26.40
2018,06,17,14,32,26.40
2018,06,17,14,33,26.40
2018,06,17,14,34,26.40
2018,06,17,14,35,26.30
2018,06,17,14,36,26.30
2018,06,17,14,37,26.30
2018,06,17,14,38,26.30
2018,06,17,14,39,26.50
2018,06,17,14,40,26.50
2018,06,17,14,41,26.60
2018,06,17,14,42,26.70
2018,06,17,14,43,26.60
2018,06,17,14,44,26.50
2018,06,17,14,45,26.40
2018,06,17,14,46,26.40
2018,06,17,14,47,26.30
2018,06,17,14,48,26.30
2018,06,17,14,49,26.30
2018,06,17,14,50,26.20
2018,06,17,14,51,26.20
2018,06,17,14,52,26.20
2018,06,17,14,53,26.30
2018,06,17,14,54,26.30
2018,06,17,14,55,26.30
2018,06,17,14,56,26.30
2018,06,17,14,57,26.20
2018,06,17,14,58,26.20
2018,06,17,14,59,26.20
2018,06,17,15,00,26.20
2018,06,17,15,01,26.30
2018,06,17,15,02,26.30
2018,06,17,15,03,26.30
2018,06,17,15,04,26.30
2018,06,17,15,05,26.20
2018,06,17,15,06,26.20
2018,06,17,15,07,26.20
2018,06,17,15,08,26.20
2018,06,17,15,09,26.20
2018,06,17,15,10,26.30
2018,06,17,15,11,26.30
2018,06,17,15,12,26.30
2018,06,17,15,13,26.30
2018,06,17,15,14,26.30
2018,06,17,15,15,26.40
2018,06,17,15,16,26.40
2018,06,17,15,17,26.50
2018,06,17,15,18,26.50
2018,06,17,15,19,26.60
2018,06,17,15,20,26.60
2018,06,17,15,21,26.50
2018,06,17,15,22,26.50
2018,06,17,15,23,26.50
2018,06,17,15,24,26.60
2018,06,17,15,25,26.70
2018,06,17,15,26,26.70
2018,06,17,15,27,26.70
2018,06,17,15,28,26.70
2018,06,17,15,29,26.70
2018,06,17,15,30,26.70
2018,06,17,15,31,26.70
2018,06,17,15,32,26.80
2018,06,17,15,33,26.80
2018,06,17,15,34,26.90
2018,06,17,15,35,26.90
2018,06,17,15,36,26.90
2018,06,17,15,37,26.90
2018,06,17,15,38,27.00
2018,06,17,15,39,27.00
2018,06,17,15,40,27.10
2018,06,17,15,41,27.30
2018,06,17,15,42,27.40
2018,06,17,15,43,27.40
2018,06,17,15,44,27.60
2018,06,17,15,45,27.70
2018,06,17,15,46,27.90
2018,06,17,15,47,28.00
2018,06,17,15,48,28.00
2018,06,17,15,49,28.00
2018,06,17,15,50,28.00
2018,06,17,15,51,28.10
2018,06,17,15,52,28.00
2018,06,17,15,53,28.00
2018,06,17,15,54,27.90
2018,06,17,15,55,27.90
2018,06,17,15,56,27.80
2018,06,17,15,57,27.80
2018,06,17,15,58,27.80
2018,06,17,15,59,27.80
2018,06,17,16,00,27.90
2018,06,17,16,01,27.90
2018,06,17,16,02,28.00
2018,06,17,16,03,28.00
2018,06,17,16,04,28.00
2018,06,17,16,05,28.00
2018,06,17,16,06,28.10
2018,06,17,16,07,28.10
2018,06,17,16,08,28.20
2018,06,17,16,09,28.30
2018,06,17,16,10,28.40
2018,06,17,16,11,28.50
2018,06,17,16,12,28.60
2018,06,17,16,13,28.60
2018,06,17,16,14,28.70
2018,06,17,16,15,28.80
2018,06,17,16,16,28.90
2018,06,17,16,17,28.90
2018,06,17,16,18,28.90
2018,06,17,16,19,28.90
2018,06,17,16,20,28.80
2018,06,17,16,21,28.80
2018,06,17,16,22,28.80
2018,06,17,16,23,28.70
2018,06,17,16,24,28.70
2018,06,17,16,25,28.60
2018,06,17,16,26,28.60
2018,06,17,16,27,28.60
2018,06,17,16,28,28.50
2018,06,17,16,29,28.40
2018,06,17,16,30,28.40
2018,06,17,16,31,28.40
2018,06,17,16,32,28.30
2018,06,17,16,33,28.30
2018,06,17,16,34,28.30
2018,06,17,16,35,28.30
2018,06,17,16,36,28.40
2018,06,17,16,37,28.50
2018,06,17,16,38,28.70
2018,06,17,16,39,28.80
2018,06,17,16,40,29.00
2018,06,17,16,41,29.20
2018,06,17,16,42,29.30
2018,06,17,16,43,29.40
2018,06,17,16,44,29.50
2018,06,17,16,45,29.60
2018,06,17,16,46,29.60
2018,06,17,16,47,29.70
2018,06,17,16,48,29.70
2018,06,17,16,49,29.70
2018,06,17,16,50,29.60
2018,06,17,16,51,29.60
2018,06,17,16,52,29.60
2018,06,17,16,53,29.50
2018,06,17,16,54,29.50
2018,06,17,16,55,29.50
2018,06,17,16,56,29.50
2018,06,17,16,57,29.50
2018,06,17,16,58,29.30
2018,06,17,16,59,29.20
2018,06,17,17,00,29.20
2018,06,17,17,01,29.10
2018,06,17,17,02,28.90
2018,06,17,17,03,28.80
2018,06,17,17,04,28.80
2018,06,17,17,05,28.80
2018,06,17,17,06,28.80
2018,06,17,17,07,28.80
2018,06,17,17,08,28.80
2018,06,17,17,09,28.80
2018,06,17,17,10,28.80
2018,06,17,17,11,28.80
2018,06,17,17,12,28.80
2018,06,17,17,13,28.90
2018,06,17,17,14,29.00
2018,06,17,17,15,29.00
2018,06,17,17,16,29.10
2018,06,17,17,17,29.10
2018,06,17,17,18,29.00
2018,06,17,17,19,29.00
2018,06,17,17,20,28.90
2018,06,17,17,21,28.90